Starlink 3735

operational
NORAD ID: 52116 Int'l Des: 2022-029 Owner: SPXS Country: US Constellation: starlink
LEOCIRCULAR

About Starlink 3735

Description loading...

Live Position

Loading 3D Globe...

Upcoming Passes

Altitude History

Altitude vs Time

uPlot chart will show altitude changes over time

Two-Line Element Set

1 52116U 22029AE 25338.68962314 .00000211 00000-0 31366-4 0 9997
2 52116 53.2172 145.5934 0001589 91.5311 268.5863 15.08846067206440
Epoch: Dec 4, 2025 • Age: 11 hours

Current Status

Altitude 559.4 km
Velocity 7.58 km/s
Sub-Earth Point -53.35°S, 71.96°W
Launch Date Mar 19, 2022
Age 3.7 years
Type internet

Technical Details

Classification Payload
Mass 297.00 kg
Dry Mass 275.00 kg
Total Mass 297.00 kg
Length 0.20 m
Diameter 2.80 m
Span 9.00 m
Shape Box + pan
Manufacturer SPXS
Bus Type Starlink
Phase Status In Orbit
Owner/State SPXS/US

Large Constellations

Loading constellations...